| time (UTC) | temp F | wind direction | speed MPH | gust MPH | rain 1hr in | rain 24hr in | rain mn in | humidity % | barometer mb |
| 20260509105045 | 52 | 0 | 0.0 | 2.0 | 0.00 | 0.00 | 0.00 | 86 | 1022.8 |
| 20260509104551 | 52 | 0 | 0.0 | 2.0 | 0.00 | 0.00 | 0.00 | 86 | 1022.8 |
| 20260509104046 | 52 | 0 | 0.0 | 0.0 | 0.00 | 0.00 | 0.00 | 85 | 1022.8 |
| 20260509103546 | 52 | 0 | 0.0 | 0.0 | 0.00 | 0.00 | 0.00 | 85 | 1022.8 |
| 20260509103058 | 52 | 0 | 0.0 | 0.0 | 0.00 | 0.00 | 0.00 | 85 | 1022.7 |
| 20260509102545 | 52 | 0 | 0.0 | 8.0 | 0.00 | 0.00 | 0.00 | 85 | 1022.8 |
| 20260509102046 | 52 | 0 | 0.0 | 8.0 | 0.00 | 0.00 | 0.00 | 85 | 1022.8 |
| 20260509101600 | 52 | 137 | 1.0 | 8.0 | 0.00 | 0.00 | 0.00 | 84 | 1022.8 |
| 20260509101045 | 52 | 0 | 1.0 | 8.0 | 0.00 | 0.00 | 0.00 | 84 | 1022.7 |
| 20260509100545 | 52 | 161 | 4.0 | 8.0 | 0.00 | 0.00 | 0.00 | 84 | 1022.8 |
| 20260509100050 | 52 | 163 | 0.0 | 5.0 | 0.00 | 0.00 | 0.00 | 84 | 1022.7 |
| 20260509095545 | 52 | 0 | 0.0 | 3.0 | 0.00 | 0.00 | 0.00 | 84 | 1022.8 |
| 20260509095045 | 53 | 0 | 0.0 | 5.0 | 0.00 | 0.00 | 0.00 | 84 | 1022.7 |
| 20260509094606 | 53 | 0 | 0.0 | 5.0 | 0.00 | 0.00 | 0.00 | 84 | 1022.7 |
| 20260509094052 | 53 | 0 | 0.0 | 8.0 | 0.00 | 0.00 | 0.00 | 84 | 1022.7 |
| 20260509093547 | 53 | 181 | 0.0 | 8.0 | 0.00 | 0.00 | 0.00 | 84 | 1022.7 |
| 20260509093056 | 53 | 167 | 3.0 | 8.0 | 0.00 | 0.00 | 0.00 | 84 | 1022.6 |
| 20260509092546 | 53 | 0 | 3.0 | 7.0 | 0.00 | 0.00 | 0.00 | 84 | 1022.7 |
| 20260509092047 | 53 | 165 | 3.0 | 9.0 | 0.00 | 0.00 | 0.00 | 84 | 1022.6 |
| 20260509091558 | 53 | 161 | 3.0 | 9.0 | 0.00 | 0.00 | 0.00 | 85 | 1022.6 |
| 20260509091047 | 53 | 159 | 2.0 | 7.0 | 0.00 | 0.00 | 0.00 | 85 | 1022.7 |
| 20260509090545 | 52 | 161 | 1.0 | 7.0 | 0.00 | 0.00 | 0.00 | 85 | 1022.7 |
| 20260509085544 | 52 | 163 | 1.0 | 6.0 | 0.00 | 0.00 | 0.00 | 86 | 1022.6 |
| 20260509085046 | 52 | 155 | 1.0 | 6.0 | 0.00 | 0.00 | 0.00 | 86 | 1022.6 |
| 20260509084558 | 52 | 0 | 1.0 | 7.0 | 0.00 | 0.00 | 0.00 | 87 | 1022.7 |
| 20260509084046 | 52 | 0 | 0.0 | 7.0 | 0.00 | 0.00 | 0.00 | 87 | 1022.7 |
| 20260509083545 | 52 | 165 | 0.0 | 4.0 | 0.00 | 0.00 | 0.00 | 88 | 1022.7 |
| 20260509083059 | 52 | 0 | 0.0 | 1.0 | 0.00 | 0.00 | 0.00 | 88 | 1022.7 |
| 20260509082545 | 52 | 0 | 0.0 | 1.0 | 0.00 | 0.00 | 0.00 | 88 | 1022.7 |
| 20260509082045 | 52 | 0 | 0.0 | 0.0 | 0.00 | 0.00 | 0.00 | 88 | 1022.6 |
| 20260509081552 | 52 | 0 | 0.0 | 0.0 | 0.00 | 0.00 | 0.00 | 88 | 1022.7 |
| 20260509081047 | 52 | 0 | 0.0 | 0.0 | 0.00 | 0.00 | 0.00 | 88 | 1022.6 |
| 20260509080547 | 52 | 0 | 0.0 | 0.0 | 0.00 | 0.00 | 0.00 | 87 | 1022.6 |
| 20260509080054 | 52 | 0 | 0.0 | 0.0 | 0.00 | 0.00 | 0.00 | 87 | 1022.6 |
| 20260509075547 | 52 | 0 | 0.0 | 0.0 | 0.00 | 0.00 | 0.00 | 87 | 1022.6 |
| 20260509075047 | 52 | 0 | 0.0 | 0.0 | 0.00 | 0.00 | 0.00 | 87 | 1022.6 |
| 20260509074556 | 52 | 0 | 0.0 | 0.0 | 0.00 | 0.00 | 0.00 | 87 | 1022.6 |
| 20260509074046 | 52 | 0 | 0.0 | 0.0 | 0.00 | 0.00 | 0.00 | 86 | 1022.5 |
| 20260509073546 | 52 | 0 | 0.0 | 0.0 | 0.00 | 0.00 | 0.00 | 85 | 1022.5 |
| 20260509073055 | 52 | 0 | 0.0 | 0.0 | 0.00 | 0.00 | 0.00 | 85 | 1022.5 |
| 20260509072546 | 53 | 0 | 0.0 | 0.0 | 0.00 | 0.00 | 0.00 | 85 | 1022.4 |
| 20260509072045 | 53 | 0 | 0.0 | 0.0 | 0.00 | 0.00 | 0.00 | 85 | 1022.4 |
| 20260509071550 | 53 | 0 | 0.0 | 0.0 | 0.00 | 0.00 | 0.00 | 84 | 1022.3 |
| 20260509071045 | 53 | 0 | 0.0 | 0.0 | 0.00 | 0.00 | 0.00 | 84 | 1022.3 |
| 20260509070545 | 53 | 0 | 0.0 | 0.0 | 0.00 | 0.00 | 0.00 | 84 | 1022.3 |
| 20260509070053 | 53 | 0 | 0.0 | 0.0 | 0.00 | 0.00 | 0.00 | 84 | 1022.3 |
| 20260509065549 | 53 | 0 | 0.0 | 0.0 | 0.00 | 0.00 | 0.00 | 84 | 1022.4 |
| 20260509065047 | 53 | 0 | 0.0 | 1.0 | 0.00 | 0.00 | 0.00 | 84 | 1022.3 |
| 20260509064550 | 53 | 0 | 0.0 | 1.0 | 0.00 | 0.00 | 0.00 | 83 | 1022.3 |
| 20260509064047 | 53 | 0 | 0.0 | 1.0 | 0.00 | 0.00 | 0.00 | 83 | 1022.3 |
| 20260509063546 | 53 | 0 | 0.0 | 1.0 | 0.00 | 0.00 | 0.00 | 83 | 1022.3 |
| 20260509063054 | 54 | 0 | 0.0 | 1.0 | 0.00 | 0.00 | 0.00 | 83 | 1022.3 |
| 20260509062547 | 54 | 0 | 0.0 | 1.0 | 0.00 | 0.00 | 0.00 | 83 | 1022.3 |
| 20260509062047 | 54 | 0 | 0.0 | 2.0 | 0.00 | 0.00 | 0.00 | 83 | 1022.2 |
| 20260509061550 | 53 | 0 | 0.0 | 2.0 | 0.00 | 0.00 | 0.00 | 83 | 1022.3 |
| 20260509061046 | 53 | 0 | 0.0 | 0.0 | 0.00 | 0.00 | 0.00 | 84 | 1022.2 |
| 20260509060547 | 53 | 0 | 0.0 | 0.0 | 0.00 | 0.00 | 0.00 | 83 | 1022.2 |
| 20260509060107 | 53 | 0 | 0.0 | 0.0 | 0.00 | 0.00 | 0.00 | 83 | 1022.2 |
| 20260509055544 | 54 | 0 | 0.0 | 0.0 | 0.00 | 0.00 | 0.00 | 83 | 1022.2 |
| 20260509055045 | 54 | 0 | 0.0 | 0.0 | 0.00 | 0.00 | 0.00 | 83 | 1022.1 |
| 20260509054551 | 54 | 0 | 0.0 | 0.0 | 0.00 | 0.00 | 0.00 | 82 | 1022.1 |
| 20260509054046 | 54 | 0 | 0.0 | 0.0 | 0.00 | 0.00 | 0.00 | 82 | 1022.1 |
| 20260509053546 | 54 | 0 | 0.0 | 0.0 | 0.00 | 0.00 | 0.00 | 81 | 1022.1 |
| 20260509053111 | 54 | 0 | 0.0 | 1.0 | 0.00 | 0.00 | 0.00 | 81 | 1022.0 |
| 20260509052549 | 54 | 0 | 0.0 | 1.0 | 0.00 | 0.00 | 0.00 | 81 | 1022.1 |
| 20260509052046 | 54 | 0 | 0.0 | 1.0 | 0.00 | 0.00 | 0.00 | 80 | 1022.0 |
| 20260509051554 | 54 | 0 | 0.0 | 1.0 | 0.00 | 0.00 | 0.00 | 80 | 1022.1 |
| 20260509051050 | 54 | 0 | 0.0 | 1.0 | 0.00 | 0.00 | 0.00 | 80 | 1022.1 |
| 20260509050551 | 54 | 0 | 0.0 | 1.0 | 0.00 | 0.00 | 0.00 | 80 | 1022.1 |
| 20260509050052 | 54 | 0 | 0.0 | 0.0 | 0.00 | 0.00 | 0.00 | 81 | 1022.1 |
| 20260509045547 | 54 | 0 | 0.0 | 0.0 | 0.00 | 0.00 | 0.00 | 80 | 1022.1 |
| 20260509045046 | 54 | 0 | 0.0 | 0.0 | 0.00 | 0.00 | 0.00 | 80 | 1022.0 |
| 20260509044621 | 54 | 0 | 0.0 | 0.0 | 0.00 | 0.00 | 0.00 | 81 | 1022.0 |
| 20260509044047 | 54 | 0 | 0.0 | 0.0 | 0.00 | 0.00 | 0.00 | 81 | 1022.0 |
| 20260509043545 | 54 | 0 | 0.0 | 0.0 | 0.00 | 0.00 | 0.00 | 80 | 1021.9 |
| 20260509043125 | 54 | 0 | 0.0 | 0.0 | 0.00 | 0.00 | 0.00 | 80 | 1021.9 |
| 20260509042547 | 55 | 0 | 0.0 | 0.0 | 0.00 | 0.00 | 0.00 | 80 | 1021.8 |
| 20260509042048 | 55 | 0 | 0.0 | 2.0 | 0.00 | 0.00 | 0.00 | 80 | 1021.7 |
| 20260509041553 | 55 | 0 | 0.0 | 2.0 | 0.00 | 0.00 | 0.00 | 80 | 1021.6 |
| 20260509041046 | 55 | 0 | 0.0 | 2.0 | 0.00 | 0.00 | 0.00 | 81 | 1021.6 |
| 20260509040545 | 55 | 0 | 0.0 | 0.0 | 0.00 | 0.00 | 0.00 | 82 | 1021.6 |
| 20260509040057 | 55 | 0 | 0.0 | 0.0 | 0.00 | 0.00 | 0.00 | 80 | 1021.5 |
| 20260509035546 | 55 | 0 | 0.0 | 0.0 | 0.00 | 0.00 | 0.00 | 79 | 1021.6 |
| 20260509035047 | 55 | 0 | 0.0 | 0.0 | 0.00 | 0.00 | 0.00 | 79 | 1021.5 |
| 20260509034552 | 55 | 0 | 0.0 | 0.0 | 0.00 | 0.00 | 0.00 | 78 | 1021.5 |
| 20260509034047 | 56 | 0 | 0.0 | 0.0 | 0.00 | 0.00 | 0.00 | 77 | 1021.5 |
| 20260509033549 | 56 | 0 | 0.0 | 0.0 | 0.00 | 0.00 | 0.00 | 76 | 1021.5 |
| 20260509033051 | 56 | 0 | 0.0 | 0.0 | 0.00 | 0.00 | 0.00 | 75 | 1021.5 |
| 20260509032546 | 56 | 0 | 0.0 | 0.0 | 0.00 | 0.00 | 0.00 | 75 | 1021.5 |
| 20260509032046 | 57 | 0 | 0.0 | 0.0 | 0.00 | 0.00 | 0.00 | 75 | 1021.5 |
| 20260509031600 | 57 | 0 | 0.0 | 0.0 | 0.00 | 0.00 | 0.00 | 76 | 1021.5 |
| 20260509031047 | 57 | 0 | 0.0 | 0.0 | 0.00 | 0.00 | 0.00 | 74 | 1021.5 |
| 20260509030546 | 57 | 0 | 0.0 | 0.0 | 0.00 | 0.00 | 0.00 | 73 | 1021.5 |
| 20260509030110 | 57 | 0 | 0.0 | 0.0 | 0.00 | 0.00 | 0.00 | 72 | 1021.4 |
| 20260509025545 | 58 | 0 | 0.0 | 0.0 | 0.00 | 0.00 | 0.00 | 71 | 1021.4 |
| 20260509025049 | 58 | 0 | 0.0 | 0.0 | 0.00 | 0.00 | 0.00 | 70 | 1021.4 |
| 20260509024553 | 58 | 0 | 0.0 | 2.0 | 0.00 | 0.00 | 0.00 | 69 | 1021.3 |
| 20260509024046 | 58 | 0 | 0.0 | 2.0 | 0.00 | 0.00 | 0.00 | 70 | 1021.3 |
| 20260509023547 | 58 | 0 | 0.0 | 0.0 | 0.00 | 0.00 | 0.00 | 71 | 1021.3 |
| 20260509023055 | 58 | 0 | 0.0 | 0.0 | 0.00 | 0.00 | 0.00 | 69 | 1021.4 |
| 20260509022547 | 59 | 0 | 0.0 | 0.0 | 0.00 | 0.00 | 0.00 | 68 | 1021.3 |
| 20260509022049 | 59 | 0 | 0.0 | 0.0 | 0.00 | 0.00 | 0.00 | 65 | 1021.4 |
| 20260509021553 | 59 | 0 | 0.0 | 0.0 | 0.00 | 0.00 | 0.00 | 67 | 1021.4 |
| 20260509021049 | 59 | 0 | 0.0 | 0.0 | 0.00 | 0.00 | 0.00 | 67 | 1021.3 |
| 20260509020547 | 59 | 0 | 0.0 | 0.0 | 0.00 | 0.00 | 0.00 | 67 | 1021.2 |
| 20260509020104 | 59 | 0 | 0.0 | 1.0 | 0.00 | 0.00 | 0.00 | 64 | 1021.3 |
| 20260509015547 | 59 | 0 | 0.0 | 1.0 | 0.00 | 0.00 | 0.00 | 64 | 1021.3 |
| 20260509015046 | 59 | 0 | 0.0 | 1.0 | 0.00 | 0.00 | 0.00 | 64 | 1021.3 |
| 20260509014549 | 59 | 0 | 0.0 | 1.0 | 0.00 | 0.00 | 0.00 | 62 | 1021.2 |
| 20260509014048 | 59 | 0 | 0.0 | 3.0 | 0.00 | 0.00 | 0.00 | 64 | 1021.3 |
| 20260509013547 | 59 | 0 | 0.0 | 3.0 | 0.00 | 0.00 | 0.00 | 61 | 1021.3 |
| 20260509013057 | 59 | 0 | 0.0 | 3.0 | 0.00 | 0.00 | 0.00 | 62 | 1021.2 |
| 20260509012545 | 59 | 0 | 0.0 | 3.0 | 0.00 | 0.00 | 0.00 | 62 | 1021.4 |
| 20260509012046 | 59 | 189 | 0.0 | 3.0 | 0.00 | 0.00 | 0.00 | 61 | 1021.3 |
| 20260509011555 | 59 | 0 | 1.0 | 3.0 | 0.00 | 0.00 | 0.00 | 62 | 1021.3 |
| 20260509011045 | 59 | 0 | 0.0 | 3.0 | 0.00 | 0.00 | 0.00 | 62 | 1021.2 |
| 20260509010545 | 59 | 0 | 0.0 | 7.0 | 0.00 | 0.00 | 0.00 | 62 | 1021.2 |
| 20260509010053 | 59 | 198 | 2.0 | 7.0 | 0.00 | 0.00 | 0.00 | 62 | 1021.3 |
| 20260509005545 | 59 | 229 | 0.0 | 5.0 | 0.00 | 0.00 | 0.00 | 61 | 1021.3 |
| 20260509005047 | 60 | 0 | 0.0 | 7.0 | 0.00 | 0.00 | 0.00 | 61 | 1021.3 |
| 20260509004559 | 60 | 0 | 3.0 | 7.0 | 0.00 | 0.00 | 0.00 | 60 | 1021.3 |
| 20260509004045 | 60 | 0 | 0.0 | 4.0 | 0.00 | 0.00 | 0.00 | 61 | 1021.2 |
| 20260509003547 | 59 | 193 | 0.0 | 5.0 | 0.00 | 0.00 | 0.00 | 61 | 1021.2 |
| 20260509003055 | 60 | 211 | 2.0 | 6.0 | 0.00 | 0.00 | 0.00 | 61 | 1021.2 |
| 20260509002546 | 59 | 0 | 2.0 | 7.0 | 0.00 | 0.00 | 0.00 | 61 | 1021.2 |
| 20260509002046 | 59 | 219 | 3.0 | 9.0 | 0.00 | 0.00 | 0.00 | 62 | 1021.2 |
| 20260509001553 | 59 | 221 | 2.0 | 9.0 | 0.00 | 0.00 | 0.00 | 61 | 1021.2 |
| 20260509001045 | 59 | 209 | 1.0 | 8.0 | 0.00 | 0.00 | 0.00 | 62 | 1021.1 |
| 20260509000545 | 59 | 259 | 2.0 | 9.0 | 0.00 | 0.00 | 0.00 | 61 | 1021.2 |
| 20260509000055 | 59 | 213 | 4.0 | 10.0 | 0.00 | 0.00 | 0.00 | 62 | 1021.2 |
| 20260508235546 | 59 | 186 | 3.0 | 10.0 | 0.00 | 0.00 | 0.00 | 61 | 1021.1 |
| 20260508235046 | 59 | 261 | 4.0 | 10.0 | 0.00 | 0.00 | 0.00 | 61 | 1021.1 |
| 20260508234551 | 59 | 193 | 2.0 | 10.0 | 0.00 | 0.00 | 0.00 | 61 | 1021.0 |
| 20260508234047 | 59 | 184 | 1.0 | 10.0 | 0.00 | 0.00 | 0.00 | 61 | 1021.1 |
| 20260508233547 | 59 | 240 | 1.0 | 10.0 | 0.00 | 0.00 | 0.00 | 61 | 1021.0 |
| 20260508233053 | 59 | 229 | 2.0 | 11.0 | 0.00 | 0.00 | 0.00 | 60 | 1021.0 |
| 20260508232552 | 60 | 282 | 4.0 | 12.0 | 0.00 | 0.00 | 0.00 | 58 | 1021.0 |
| 20260508232046 | 60 | 200 | 4.0 | 12.0 | 0.00 | 0.00 | 0.00 | 60 | 1021.0 |
| 20260508231555 | 59 | 245 | 3.0 | 11.0 | 0.00 | 0.00 | 0.00 | 61 | 1021.0 |
| 20260508231046 | 59 | 198 | 2.0 | 11.0 | 0.00 | 0.00 | 0.00 | 61 | 1021.0 |
| 20260508230550 | 59 | 198 | 4.0 | 14.0 | 0.00 | 0.00 | 0.00 | 60 | 1021.0 |
| 20260508230055 | 59 | 206 | 5.0 | 14.0 | 0.00 | 0.00 | 0.00 | 60 | 1020.8 |
| 20260508225548 | 60 | 184 | 5.0 | 12.0 | 0.00 | 0.00 | 0.00 | 59 | 1020.9 |
| 20260508225051 | 59 | 232 | 2.0 | 16.0 | 0.00 | 0.00 | 0.00 | 60 | 1020.9 |
| 20260508224627 | 60 | 221 | 5.0 | 16.0 | 0.00 | 0.00 | 0.00 | 59 | 1020.9 |
| 20260508224047 | 60 | 146 | 4.0 | 11.0 | 0.00 | 0.00 | 0.00 | 59 | 1020.8 |
| 20260508223547 | 60 | 161 | 4.0 | 18.0 | 0.00 | 0.00 | 0.00 | 57 | 1020.9 |
| 20260508223055 | 60 | 139 | 5.0 | 18.0 | 0.00 | 0.00 | 0.00 | 58 | 1020.8 |
| 20260508222548 | 60 | 142 | 2.0 | 12.0 | 0.00 | 0.00 | 0.00 | 57 | 1020.9 |
| 20260508222047 | 59 | 175 | 5.0 | 12.0 | 0.00 | 0.00 | 0.00 | 58 | 1020.9 |
| 20260508221557 | 60 | 180 | 4.0 | 12.0 | 0.00 | 0.00 | 0.00 | 59 | 1020.9 |
| 20260508221047 | 59 | 111 | 2.0 | 11.0 | 0.00 | 0.00 | 0.00 | 58 | 1020.9 |
| 20260508220547 | 59 | 142 | 3.0 | 12.0 | 0.00 | 0.00 | 0.00 | 58 | 1021.1 |
| 20260508220057 | 59 | 150 | 5.0 | 12.0 | 0.00 | 0.00 | 0.00 | 58 | 1021.0 |
| 20260508215545 | 59 | 169 | 4.0 | 12.0 | 0.00 | 0.00 | 0.00 | 59 | 1021.0 |
| 20260508215044 | 59 | 199 | 5.0 | 13.0 | 0.00 | 0.00 | 0.00 | 59 | 1020.9 |
| 20260508214556 | 58 | 0 | 5.0 | 13.0 | 0.00 | 0.00 | 0.00 | 58 | 1020.8 |
| 20260508214046 | 58 | 155 | 5.0 | 12.0 | 0.00 | 0.00 | 0.00 | 62 | 1020.8 |
| 20260508213544 | 58 | 198 | 6.0 | 12.0 | 0.00 | 0.00 | 0.00 | 61 | 1020.9 |
| 20260508213053 | 58 | 167 | 4.0 | 11.0 | 0.00 | 0.00 | 0.00 | 63 | 1020.9 |
| 20260508212547 | 58 | 195 | 5.0 | 11.0 | 0.00 | 0.00 | 0.00 | 61 | 1020.9 |
| 20260508212047 | 58 | 142 | 5.0 | 17.0 | 0.00 | 0.00 | 0.00 | 64 | 1021.0 |
| 20260508211555 | 57 | 214 | 5.0 | 17.0 | 0.00 | 0.00 | 0.00 | 64 | 1020.9 |
| 20260508211046 | 58 | 126 | 5.0 | 14.0 | 0.00 | 0.00 | 0.00 | 64 | 1020.9 |
| 20260508210547 | 58 | 180 | 6.0 | 14.0 | 0.00 | 0.00 | 0.00 | 63 | 1020.8 |
| 20260508210059 | 58 | 157 | 5.0 | 15.0 | 0.00 | 0.00 | 0.00 | 63 | 1020.7 |
| 20260508205548 | 57 | 162 | 7.0 | 15.0 | 0.00 | 0.00 | 0.00 | 64 | 1020.7 |
| 20260508205045 | 58 | 193 | 5.0 | 15.0 | 0.00 | 0.00 | 0.00 | 62 | 1020.6 |
| 20260508204556 | 58 | 157 | 5.0 | 11.0 | 0.00 | 0.00 | 0.00 | 63 | 1020.7 |
| 20260508204046 | 58 | 78 | 6.0 | 14.0 | 0.00 | 0.00 | 0.00 | 62 | 1020.6 |
| 20260508203545 | 58 | 163 | 6.0 | 14.0 | 0.00 | 0.00 | 0.00 | 63 | 1020.7 |
| 20260508203106 | 58 | 65 | 3.0 | 14.0 | 0.00 | 0.00 | 0.00 | 62 | 1020.6 |
| 20260508202546 | 58 | 153 | 5.0 | 14.0 | 0.00 | 0.00 | 0.00 | 63 | 1020.7 |
| 20260508202047 | 58 | 178 | 4.0 | 14.0 | 0.00 | 0.00 | 0.00 | 62 | 1020.7 |
| 20260508201557 | 58 | 121 | 6.0 | 14.0 | 0.00 | 0.00 | 0.00 | 60 | 1020.7 |
| 20260508201046 | 58 | 184 | 5.0 | 16.0 | 0.00 | 0.00 | 0.00 | 62 | 1020.6 |
| 20260508200546 | 58 | 248 | 5.0 | 16.0 | 0.00 | 0.00 | 0.00 | 60 | 1020.6 |
| 20260508200052 | 58 | 208 | 2.0 | 14.0 | 0.00 | 0.00 | 0.00 | 59 | 1020.5 |
| 20260508195549 | 57 | 195 | 6.0 | 14.0 | 0.00 | 0.00 | 0.00 | 61 | 1020.5 |
| 20260508195045 | 57 | 161 | 4.0 | 16.0 | 0.00 | 0.00 | 0.00 | 64 | 1020.4 |
| 20260508194551 | 57 | 248 | 3.0 | 16.0 | 0.00 | 0.00 | 0.00 | 65 | 1020.4 |
| 20260508194048 | 56 | 159 | 7.0 | 14.0 | 0.00 | 0.00 | 0.00 | 66 | 1020.4 |
| 20260508193547 | 56 | 230 | 5.0 | 13.0 | 0.00 | 0.00 | 0.00 | 66 | 1020.3 |
| 20260508193054 | 56 | 217 | 6.0 | 16.0 | 0.00 | 0.00 | 0.00 | 66 | 1020.3 |
| 20260508192549 | 57 | 173 | 8.0 | 16.0 | 0.00 | 0.00 | 0.00 | 64 | 1020.3 |
| 20260508192047 | 57 | 175 | 7.0 | 15.0 | 0.00 | 0.00 | 0.00 | 63 | 1020.3 |
| 20260508191551 | 58 | 175 | 4.0 | 14.0 | 0.00 | 0.00 | 0.00 | 63 | 1020.2 |
| 20260508191051 | 57 | 206 | 5.0 | 14.0 | 0.00 | 0.00 | 0.00 | 65 | 1020.2 |
| 20260508190547 | 57 | 227 | 6.0 | 12.0 | 0.00 | 0.00 | 0.00 | 67 | 1020.4 |
| 20260508190054 | 56 | 202 | 6.0 | 11.0 | 0.00 | 0.00 | 0.00 | 67 | 1020.3 |
| 20260508185549 | 56 | 140 | 5.0 | 10.0 | 0.00 | 0.00 | 0.00 | 68 | 1020.3 |
| 20260508185046 | 56 | 248 | 4.0 | 11.0 | 0.00 | 0.00 | 0.00 | 69 | 1020.2 |
| 20260508184554 | 55 | 227 | 5.0 | 14.0 | 0.00 | 0.00 | 0.00 | 68 | 1020.2 |
| 20260508184045 | 55 | 183 | 4.0 | 14.0 | 0.00 | 0.00 | 0.00 | 70 | 1020.2 |
| 20260508183548 | 55 | 194 | 5.0 | 14.0 | 0.00 | 0.00 | 0.00 | 69 | 1020.3 |
| 20260508183052 | 55 | 161 | 6.0 | 14.0 | 0.00 | 0.00 | 0.00 | 69 | 1020.2 |
| 20260508182548 | 56 | 216 | 6.0 | 13.0 | 0.00 | 0.00 | 0.00 | 69 | 1020.2 |
| 20260508182047 | 56 | 142 | 5.0 | 13.0 | 0.00 | 0.00 | 0.00 | 68 | 1020.2 |
| 20260508181557 | 55 | 205 | 4.0 | 12.0 | 0.00 | 0.00 | 0.00 | 71 | 1020.0 |
| 20260508181047 | 55 | 177 | 4.0 | 10.0 | 0.00 | 0.00 | 0.00 | 72 | 1020.0 |
| 20260508180547 | 54 | 194 | 3.0 | 11.0 | 0.00 | 0.00 | 0.00 | 76 | 1020.0 |
| 20260508180052 | 54 | 180 | 3.0 | 15.0 | 0.00 | 0.00 | 0.00 | 77 | 1020.0 |
| 20260508175547 | 54 | 214 | 5.0 | 16.0 | 0.00 | 0.00 | 0.00 | 76 | 1019.9 |
| 20260508175047 | 54 | 192 | 7.0 | 16.0 | 0.00 | 0.00 | 0.00 | 75 | 1019.9 |
| 20260508174600 | 54 | 0 | 3.0 | 11.0 | 0.00 | 0.00 | 0.00 | 77 | 1019.8 |
| 20260508174046 | 54 | 155 | 3.0 | 11.0 | 0.00 | 0.00 | 0.00 | 79 | 1019.7 |
| 20260508173549 | 54 | 187 | 2.0 | 17.0 | 0.00 | 0.00 | 0.00 | 80 | 1019.6 |
| 20260508173056 | 53 | 120 | 5.0 | 17.0 | 0.00 | 0.00 | 0.00 | 80 | 1019.4 |
| 20260508172546 | 53 | 173 | 4.0 | 16.0 | 0.00 | 0.00 | 0.00 | 81 | 1019.4 |
| 20260508172046 | 53 | 157 | 5.0 | 12.0 | 0.00 | 0.00 | 0.00 | 81 | 1019.4 |
| 20260508171552 | 53 | 192 | 6.0 | 11.0 | 0.00 | 0.00 | 0.00 | 81 | 1019.3 |
| 20260508171046 | 53 | 171 | 5.0 | 10.0 | 0.00 | 0.00 | 0.00 | 81 | 1019.1 |
| 20260508170545 | 52 | 171 | 3.0 | 8.0 | 0.00 | 0.00 | 0.00 | 83 | 1019.1 |
| 20260508170052 | 52 | 184 | 1.0 | 8.0 | 0.00 | 0.00 | 0.00 | 85 | 1018.9 |
| 20260508165545 | 52 | 0 | 2.0 | 10.0 | 0.00 | 0.00 | 0.00 | 84 | 1018.9 |
| 20260508165045 | 52 | 167 | 4.0 | 13.0 | 0.00 | 0.00 | 0.00 | 84 | 1019.0 |
| 20260508164556 | 52 | 167 | 4.0 | 13.0 | 0.00 | 0.00 | 0.00 | 84 | 1019.0 |
| 20260508164047 | 51 | 159 | 4.0 | 8.0 | 0.00 | 0.00 | 0.00 | 85 | 1018.9 |
| 20260508163548 | 51 | 169 | 3.0 | 11.0 | 0.00 | 0.00 | 0.00 | 86 | 1018.8 |
| 20260508163050 | 51 | 142 | 4.0 | 12.0 | 0.00 | 0.00 | 0.00 | 87 | 1018.8 |
| 20260508162545 | 51 | 219 | 4.0 | 12.0 | 0.00 | 0.00 | 0.00 | 88 | 1018.9 |
| 20260508162047 | 51 | 183 | 3.0 | 12.0 | 0.00 | 0.00 | 0.00 | 89 | 1018.9 |
| 20260508161555 | 50 | 137 | 2.0 | 8.0 | 0.00 | 0.00 | 0.00 | 89 | 1018.9 |
| 20260508161050 | 50 | 165 | 2.0 | 8.0 | 0.00 | 0.00 | 0.00 | 90 | 1018.9 |
| 20260508160544 | 50 | 173 | 4.0 | 8.0 | 0.00 | 0.00 | 0.00 | 90 | 1019.0 |
| 20260508160048 | 50 | 163 | 3.0 | 8.0 | 0.00 | 0.00 | 0.00 | 90 | 1019.0 |
| 20260508155546 | 50 | 114 | 1.0 | 9.0 | 0.00 | 0.00 | 0.00 | 90 | 1019.1 |
| 20260508155046 | 50 | 157 | 2.0 | 9.0 | 0.00 | 0.00 | 0.00 | 91 | 1018.9 |
| 20260508154607 | 50 | 156 | 4.0 | 9.0 | 0.00 | 0.00 | 0.00 | 91 | 1018.9 |
| 20260508154043 | 50 | 116 | 3.0 | 8.0 | 0.00 | 0.00 | 0.00 | 91 | 1018.8 |
| 20260508153546 | 50 | 162 | 3.0 | 8.0 | 0.00 | 0.00 | 0.00 | 91 | 1018.9 |
| 20260508153053 | 50 | 186 | 3.0 | 9.0 | 0.00 | 0.00 | 0.00 | 91 | 1018.8 |
| 20260508152546 | 50 | 167 | 2.0 | 9.0 | 0.00 | 0.00 | 0.00 | 92 | 1018.8 |
| 20260508152047 | 50 | 153 | 3.0 | 12.0 | 0.00 | 0.00 | 0.00 | 92 | 1018.7 |
| 20260508151553 | 50 | 168 | 4.0 | 12.0 | 0.00 | 0.00 | 0.00 | 92 | 1018.6 |
| 20260508151043 | 50 | 164 | 3.0 | 8.0 | 0.00 | 0.00 | 0.00 | 93 | 1018.5 |
| 20260508150545 | 50 | 150 | 3.0 | 8.0 | 0.00 | 0.00 | 0.00 | 93 | 1018.5 |
| 20260508145547 | 50 | 0 | 3.0 | 7.0 | 0.00 | 0.00 | 0.00 | 95 | 1018.4 |
| 20260508145046 | 49 | 182 | 1.0 | 6.0 | 0.00 | 0.00 | 0.00 | 95 | 1018.3 |
| 20260508144554 | 49 | 169 | 1.0 | 8.0 | 0.00 | 0.00 | 0.00 | 96 | 1018.1 |
| 20260508144047 | 49 | 155 | 1.0 | 8.0 | 0.00 | 0.00 | 0.00 | 96 | 1018.1 |
| 20260508143548 | 49 | 0 | 1.0 | 4.0 | 0.00 | 0.00 | 0.00 | 96 | 1018.1 |
| 20260508143119 | 48 | 179 | 0.0 | 2.0 | 0.00 | 0.00 | 0.00 | 96 | 1018.0 |
| 20260508142546 | 48 | 0 | 0.0 | 1.0 | 0.00 | 0.00 | 0.00 | 96 | 1017.9 |
| 20260508142047 | 48 | 0 | 0.0 | 2.0 | 0.00 | 0.00 | 0.00 | 97 | 1017.8 |
| 20260508141552 | 48 | 0 | 0.0 | 2.0 | 0.00 | 0.00 | 0.00 | 97 | 1017.7 |
| 20260508141045 | 48 | 179 | 0.0 | 0.0 | 0.00 | 0.00 | 0.00 | 96 | 1017.6 |
| 20260508140545 | 48 | 0 | 0.0 | 0.0 | 0.00 | 0.00 | 0.00 | 96 | 1017.6 |
| 20260508140106 | 48 | 0 | 0.0 | 0.0 | 0.00 | 0.00 | 0.00 | 96 | 1017.5 |
| 20260508135544 | 48 | 0 | 0.0 | 0.0 | 0.00 | 0.00 | 0.00 | 96 | 1017.5 |
| 20260508135046 | 48 | 0 | 0.0 | 0.0 | 0.00 | 0.00 | 0.00 | 96 | 1017.4 |
| 20260508134556 | 48 | 0 | 0.0 | 0.0 | 0.00 | 0.00 | 0.00 | 96 | 1017.3 |
| 20260508134045 | 47 | 0 | 0.0 | 0.0 | 0.00 | 0.00 | 0.00 | 96 | 1017.4 |
| 20260508133547 | 47 | 0 | 0.0 | 0.0 | 0.00 | 0.00 | 0.00 | 96 | 1017.3 |
| 20260508133106 | 47 | 0 | 0.0 | 0.0 | 0.00 | 0.00 | 0.00 | 96 | 1017.4 |
| 20260508132549 | 47 | 0 | 0.0 | 0.0 | 0.00 | 0.00 | 0.00 | 96 | 1017.3 |
| 20260508132047 | 47 | 0 | 0.0 | 0.0 | 0.00 | 0.00 | 0.00 | 96 | 1017.2 |
| 20260508131600 | 47 | 0 | 0.0 | 0.0 | 0.00 | 0.00 | 0.00 | 96 | 1017.1 |
| 20260508131047 | 47 | 0 | 0.0 | 0.0 | 0.00 | 0.00 | 0.00 | 96 | 1017.1 |
| 20260508130547 | 47 | 0 | 0.0 | 0.0 | 0.00 | 0.00 | 0.00 | 96 | 1017.1 |
| 20260508130059 | 47 | 0 | 0.0 | 0.0 | 0.00 | 0.00 | 0.00 | 96 | 1017.0 |
| 20260508125548 | 47 | 0 | 0.0 | 0.0 | 0.00 | 0.00 | 0.00 | 96 | 1017.1 |
| 20260508125046 | 47 | 0 | 0.0 | 0.0 | 0.00 | 0.00 | 0.00 | 96 | 1017.0 |
| 20260508124553 | 47 | 0 | 0.0 | 0.0 | 0.00 | 0.00 | 0.00 | 96 | 1016.8 |
| 20260508124048 | 47 | 0 | 0.0 | 0.0 | 0.00 | 0.00 | 0.00 | 96 | 1016.8 |
| 20260508123547 | 47 | 0 | 0.0 | 0.0 | 0.00 | 0.00 | 0.00 | 96 | 1016.7 |
| 20260508123055 | 47 | 0 | 0.0 | 0.0 | 0.00 | 0.00 | 0.00 | 96 | 1016.6 |
| 20260508122547 | 47 | 0 | 0.0 | 0.0 | 0.00 | 0.00 | 0.00 | 96 | 1016.6 |
| 20260508122052 | 47 | 0 | 0.0 | 1.0 | 0.00 | 0.00 | 0.00 | 96 | 1016.5 |
| 20260508121556 | 47 | 0 | 0.0 | 1.0 | 0.00 | 0.00 | 0.00 | 96 | 1016.4 |
| 20260508121047 | 47 | 0 | 0.0 | 0.0 | 0.00 | 0.00 | 0.00 | 96 | 1016.5 |
| 20260508120545 | 47 | 0 | 0.0 | 0.0 | 0.00 | 0.00 | 0.00 | 96 | 1016.4 |
| 20260508120052 | 47 | 0 | 0.0 | 0.0 | 0.00 | 0.00 | 0.00 | 96 | 1016.3 |
| 20260508115547 | 47 | 0 | 0.0 | 0.0 | 0.00 | 0.00 | 0.00 | 96 | 1016.4 |
| 20260508115046 | 47 | 0 | 0.0 | 0.0 | 0.00 | 0.00 | 0.00 | 96 | 1016.4 |
| 20260508114554 | 47 | 0 | 0.0 | 0.0 | 0.00 | 0.00 | 0.00 | 96 | 1016.4 |
| 20260508114047 | 47 | 0 | 0.0 | 0.0 | 0.00 | 0.00 | 0.00 | 96 | 1016.4 |
| 20260508113549 | 47 | 0 | 0.0 | 0.0 | 0.00 | 0.00 | 0.00 | 97 | 1016.4 |
| 20260508113057 | 47 | 0 | 0.0 | 0.0 | 0.00 | 0.00 | 0.00 | 96 | 1016.3 |
| 20260508112546 | 46 | 0 | 0.0 | 0.0 | 0.00 | 0.00 | 0.00 | 96 | 1016.2 |
| 20260508112046 | 46 | 0 | 0.0 | 0.0 | 0.00 | 0.00 | 0.00 | 96 | 1016.1 |
| 20260508111605 | 46 | 0 | 0.0 | 0.0 | 0.00 | 0.00 | 0.00 | 96 | 1016.1 |
| 20260508111046 | 46 | 0 | 0.0 | 0.0 | 0.00 | 0.00 | 0.00 | 96 | 1016.2 |
| 20260508110544 | 46 | 0 | 0.0 | 0.0 | 0.00 | 0.00 | 0.00 | 96 | 1016.3 |
| 20260508105545 | 46 | 0 | 0.0 | 0.0 | 0.00 | 0.01 | 0.00 | 95 | 1016.2 |